Weather History for Middletown, OH

Change the Weather History Date:

Sunday, December 16, 2012

  Actual Average (KDAY) Record (KDAY)
Temperature  
Mean Temperature 50 °F 31 °F  
Max Temperature 60 °F 38 °F 65 °F (1933)
Min Temperature 41 °F 24 °F -15 °F (1951)
Degree Days  
Heating Degree Days 14 34  
Month to date heating degree days 508  
Since 1 July heating degree days 1619  
Cooling Degree Days 0 0  
Month to date cooling degree days 0  
Year to date cooling degree days 891  
Moisture  
Dew Point 50 °F    
Average Humidity 89    
Maximum Humidity 100    
Minimum Humidity 74    
Precipitation  
Precipitation 0.00 in 0.10 in 1.01 in (1996)
Month to date precipitation 1.62  
Year to date precipitation 39.55  
Snow  
Snow 0.00 in 0.10 in 1.90 in (2010)
Month to date snowfall 1.8  
Since 1 July snowfall 2.8  
Snow Depth -    
Sea Level Pressure  
Sea Level Pressure 29.73 in    
Wind  
Wind Speed 7 mph (SSW)    
Max Wind Speed 17 mph    
Max Gust Speed 26 mph    
Visibility 10 miles    
Events      
T = Trace of Precipitation, MM = Missing Value Source: NWS Daily Summary

Daily Weather History Graph

Daily Weather History Graph

Search for Another Location

Airport:

Trip Planner

Search our weather history database for the weather conditions in past years. The results will help you decide how hot, cold, wet, or windy it might be!

Date:

Astronomy

Dec. 16, 2012 Rise Set
Actual Time 7:51 AM EST 5:15 PM EST
Civil Twilight 7:21 AM EST 5:45 PM EST
Nautical Twilight 6:47 AM EST 6:19 PM EST
Astronomical Twilight 6:14 AM EST 6:52 PM EST
Moon 10:25 AM EST (12/16) 9:27 PM EST (12/16)
Length of Visible Light 10h 23m
Length of Day
9h 23m
Waxing Crescent, 16% of the Moon is Illuminated
Dec 16
Waxing Crescent
Dec 20
First Quarter
Dec 28
Full
Jan 4
Last Quarter
Jan 11
New

Hourly Weather History & Observations

Time (EST) Temp. Windchill Dew Point Humidity Pressure Visibility Wind Dir Wind Speed Gust Speed Precip Events Conditions
12:15 AM 52.7 °F - 47.1 °F 81% 29.80 in 10.0 mi SSW 8.1 mph - N/A   Overcast
12:35 AM 52.7 °F - 47.1 °F 81% 29.80 in 10.0 mi South 9.2 mph - N/A   Overcast
12:55 AM 52.7 °F - 47.1 °F 81% 29.79 in 10.0 mi South 11.5 mph - N/A   Overcast
1:15 AM 52.7 °F - 47.1 °F 81% 29.79 in 10.0 mi South 9.2 mph - N/A   Overcast
1:55 AM 52.7 °F - 47.5 °F 82% 29.78 in 10.0 mi SSW 6.9 mph - N/A   Overcast
2:15 AM 52.7 °F - 47.8 °F 84% 29.78 in 10.0 mi SSW 8.1 mph - N/A   Overcast
2:35 AM 52.7 °F - 48.0 °F 84% 29.78 in 10.0 mi South 6.9 mph - N/A   Overcast
2:55 AM 52.7 °F - 48.2 °F 85% 29.78 in 10.0 mi South 6.9 mph - N/A   Overcast
3:15 AM 52.7 °F - 48.2 °F 85% 29.78 in 10.0 mi South 5.8 mph - N/A   Overcast
3:35 AM 52.7 °F - 48.7 °F 86% 29.77 in 10.0 mi South 3.5 mph - N/A   Overcast
3:55 AM 52.7 °F - 49.3 °F 88% 29.77 in 10.0 mi South 5.8 mph - N/A   Overcast
4:15 AM 52.7 °F - 49.3 °F 88% 29.77 in 10.0 mi Calm Calm - N/A   Overcast
4:35 AM 52.7 °F - 49.8 °F 90% 29.76 in 10.0 mi Calm Calm - N/A   Overcast
4:55 AM 52.7 °F - 50.2 °F 91% 29.75 in 10.0 mi SSW 4.6 mph - N/A   Mostly Cloudy
5:15 AM 52.7 °F - 50.9 °F 94% 29.76 in 10.0 mi SW 4.6 mph - N/A   Mostly Cloudy
5:35 AM 52.7 °F - 51.1 °F 94% 29.76 in 10.0 mi South 4.6 mph - N/A   Overcast
6:15 AM 54.0 °F - 52.0 °F 93% 29.75 in 10.0 mi SSW 6.9 mph - N/A   Overcast
6:35 AM 52.7 °F - 51.4 °F 95% 29.75 in 10.0 mi South 4.6 mph - N/A   Overcast
6:55 AM 54.7 °F - 53.2 °F 95% 29.75 in 10.0 mi SSW 6.9 mph - N/A   Overcast
7:15 AM 52.7 °F - 51.8 °F 97% 29.75 in 10.0 mi SSW 9.2 mph - N/A   Scattered Clouds
7:35 AM 53.1 °F - 52.5 °F 98% 29.75 in 10.0 mi SSW 6.9 mph - N/A   Mostly Cloudy
7:55 AM 52.7 °F - 52.7 °F 100% 29.76 in 10.0 mi WSW 3.5 mph - N/A   Overcast
8:15 AM 52.7 °F - 52.7 °F 100% 29.75 in 10.0 mi SSW 5.8 mph - N/A   Overcast
8:35 AM 53.4 °F - 53.2 °F 99% 29.75 in 10.0 mi South 8.1 mph - N/A   Mostly Cloudy
8:55 AM 55.4 °F - 54.9 °F 98% 29.75 in 10.0 mi SSW 8.1 mph - N/A   Scattered Clouds
9:15 AM 55.4 °F - 54.7 °F 97% 29.75 in 10.0 mi SSW 8.1 mph - N/A   Mostly Cloudy
9:35 AM 55.8 °F - 54.7 °F 96% 29.76 in 10.0 mi SSW 9.2 mph - N/A   Overcast
9:55 AM 57.7 °F - 56.3 °F 95% 29.75 in 10.0 mi SSW 8.1 mph - N/A   Overcast
10:15 AM 57.7 °F - 55.8 °F 93% 29.75 in 10.0 mi SSW 9.2 mph - N/A   Overcast
10:35 AM 57.9 °F - 55.6 °F 92% 29.76 in 10.0 mi SW 11.5 mph - N/A   Overcast
10:55 AM 59.0 °F - 55.4 °F 88% 29.75 in 10.0 mi SW 11.5 mph - N/A   Overcast
11:15 AM 60.1 °F - 55.4 °F 85% 29.75 in 10.0 mi SW 12.7 mph - N/A   Mostly Cloudy
11:35 AM 60.1 °F - 54.0 °F 80% 29.74 in 10.0 mi SW 17.3 mph 26.5 mph N/A   Mostly Cloudy
11:55 AM 60.1 °F - 53.6 °F 79% 29.73 in 10.0 mi SW 16.1 mph 20.7 mph N/A   Scattered Clouds
12:15 PM 60.1 °F - 53.6 °F 79% 29.72 in 10.0 mi SW 12.7 mph - N/A   Mostly Cloudy
12:35 PM 60.1 °F - 53.2 °F 78% 29.71 in 10.0 mi SW 10.4 mph - N/A   Scattered Clouds
12:55 PM 60.1 °F - 52.9 °F 77% 29.70 in 10.0 mi SW 9.2 mph - N/A   Scattered Clouds
1:35 PM 60.3 °F - 51.8 °F 74% 29.70 in 10.0 mi SW 11.5 mph - N/A   Scattered Clouds
1:55 PM 60.1 °F - 51.8 °F 74% 29.69 in 10.0 mi SSW 12.7 mph - N/A   Clear
2:15 PM 60.1 °F - 52.0 °F 75% 29.67 in 10.0 mi SSW 10.4 mph - N/A   Clear
2:35 PM 59.9 °F - 51.8 °F 75% 29.67 in 10.0 mi SSW 9.2 mph 18.4 mph N/A   Clear
2:55 PM 59.2 °F - 51.3 °F 75% 29.67 in 10.0 mi SSW 11.5 mph - N/A   Clear
3:15 PM 59.0 °F - 50.9 °F 74% 29.68 in 10.0 mi SSW 11.5 mph - N/A   Clear
3:35 PM 59.0 °F - 50.9 °F 74% 29.67 in 10.0 mi SW 10.4 mph - N/A   Clear
3:55 PM 58.5 °F - 51.3 °F 77% 29.68 in 10.0 mi SW 9.2 mph - N/A   Clear
4:15 PM 57.7 °F - 51.6 °F 80% 29.68 in 10.0 mi SW 9.2 mph - N/A   Clear
4:35 PM 57.7 °F - 51.8 °F 81% 29.68 in 10.0 mi SW 6.9 mph - N/A   Clear
4:55 PM 55.8 °F - 50.9 °F 84% 29.69 in 10.0 mi SW 6.9 mph - N/A   Clear
5:15 PM 55.4 °F - 51.1 °F 85% 29.70 in 10.0 mi SW 5.8 mph - N/A   Clear
5:35 PM 55.4 °F - 51.8 °F 88% 29.69 in 10.0 mi SW 4.6 mph - N/A   Scattered Clouds
5:55 PM 55.4 °F - 52.0 °F 88% 29.69 in 10.0 mi SW 4.6 mph - N/A   Mostly Cloudy
6:15 PM 55.4 °F - 52.5 °F 90% 29.69 in 10.0 mi WSW 3.5 mph - N/A   Scattered Clouds
6:35 PM 52.7 °F - 51.1 °F 94% 29.69 in 10.0 mi Calm Calm - N/A   Scattered Clouds
6:55 PM 52.7 °F - 50.9 °F 94% 29.70 in 10.0 mi WSW 4.6 mph - N/A   Scattered Clouds
7:15 PM 52.7 °F - 50.4 °F 92% 29.71 in 10.0 mi WSW 5.8 mph - N/A   Scattered Clouds
7:35 PM 52.7 °F - 49.8 °F 90% 29.71 in 10.0 mi Calm Calm - N/A   Clear
7:55 PM 52.7 °F - 49.5 °F 89% 29.71 in 10.0 mi Calm Calm - N/A   Clear
8:15 PM 50.9 °F - 48.6 °F 92% 29.71 in 10.0 mi Calm Calm - N/A   Scattered Clouds
8:35 PM 47.7 °F - 47.5 °F 99% 29.71 in 10.0 mi Calm Calm - N/A   Mostly Cloudy
8:55 PM 47.7 °F - 47.7 °F 100% 29.72 in 10.0 mi Calm Calm - N/A   Mostly Cloudy
9:15 PM 47.7 °F - 47.7 °F 100% 29.72 in 10.0 mi Calm Calm - N/A   Mostly Cloudy
9:35 PM 47.5 °F - 47.5 °F 100% 29.73 in 10.0 mi Calm Calm - N/A   Mostly Cloudy
9:55 PM 45.1 °F - 45.1 °F 100% 29.74 in 10.0 mi Calm Calm - N/A   Scattered Clouds
10:15 PM 41.5 °F - 41.5 °F 100% 29.74 in 2.0 mi Calm Calm - N/A   Scattered Clouds
10:35 PM 44.6 °F - 44.6 °F 100% 29.75 in 10.0 mi Calm Calm - N/A   Mostly Cloudy
10:55 PM 43.3 °F - 43.3 °F 100% 29.75 in 10.0 mi Calm Calm - N/A   Overcast
11:15 PM 42.8 °F - 42.8 °F 100% 29.75 in 10.0 mi Calm Calm - N/A   Overcast
11:35 PM 42.4 °F 40.7 °F 42.4 °F 100% 29.75 in 10.0 mi North 3.5 mph - N/A   Overcast
11:55 PM 42.8 °F - 42.8 °F 100% 29.75 in 10.0 mi Calm Calm - N/A   Overcast